Regional Weather Roundup
Issued by NWS

Home | Current Version | Previous Version | Graphics & Text | Print | Product List | Glossary On
Versions: 1 2 3 4 5 6 7 8 9 10 11 12 13 14 15 16 17 18 19 20 21 22 23 24 25 26 27 28 29 30 31 32 33 34 35 36 37 38 39 40 41 42 43 44 45 46 47 48 49 50
000
ASUS43 KFSD 281702
RWRSD

WEATHER ROUNDUP FOR SOUTH DAKOTA
NATIONAL WEATHER SERVICE SIOUX FALLS SD
1200 PM CDT THU MAY 28 2015

NOTE: "FAIR" INDICATES FEW OR NO CLOUDS BELOW 12,000 FEET WITH NO
SIGNIFICANT WEATHER AND/OR OBSTRUCTIONS TO VISIBILITY.


SDZ001>005-009-010-012>017-281800-
NORTHWEST AND NORTH CENTRAL SOUTH DAKOTA

CITY           SKY/WX    TMP DP  RH WIND       PRES   REMARKS
BUFFALO          N/A     69  53  56 NW15      29.87S
FAITH            N/A     72  54  53 N8        29.91R
MOBRIDGE       MOSUNNY   71  61  70 CALM      29.85S
$$

SDZ012>016-024>037-041>051-057-063-072>074-281800-
SOUTHWEST AND SOUTH CENTRAL SOUTH DAKOTA

CITY           SKY/WX    TMP DP  RH WIND       PRES   REMARKS
RAPID CTY ARPT MOSUNNY   70  53  54 NE13G22   29.95R
PIERRE         SUNNY     75  59  57 S8        29.87S
CUSTER         PTSUNNY   61  48  62 SW10      30.02R
ELLSWORTH AFB  MOSUNNY   69  52  54 N13G21    29.95R
PHILIP         MOSUNNY   72  61  68 NW6       29.90S
PINE RIDGE     MOSUNNY   71  49  45 W12       29.95S
WINNER         FAIR      79  55  43 SW13      29.90F
$$

SDZ004>011-016>023-039-040-281800-
NORTHEAST SOUTH DAKOTA

CITY           SKY/WX    TMP DP  RH WIND       PRES   REMARKS
ABERDEEN       SUNNY     77  61  57 S18G29    29.88F
WATERTOWN      MOSUNNY   72  60  66 S28G35    29.96F
BROOKINGS      PTSUNNY   68  59  73 SE13      30.01F
SISSETON         N/A     77  57  50 SW21G29   29.90F
$$

SDZ017-020-022-023-036>040-048>070-281800-
SOUTHEAST SOUTH DAKOTA

CITY           SKY/WX    TMP DP  RH WIND       PRES   REMARKS
SIOUX FALLS    PTSUNNY   77  58  51 S15G23    29.99F
HURON            N/A    N/A N/A N/A MISG      29.90F
CHAMBERLAIN    MOSUNNY   76  60  57 S10       29.90F
MITCHELL       SUNNY     79  62  56 S21G29    29.93F
YANKTON        MOSUNNY   79  57  47 S15G23    29.94F
$$

ABBREVIATIONS USED IN REMARKS
   TC - TEMPERATURE IN CELSIUS
  WCI - WIND CHILL INDEX
   HX - HEAT INDEX
  VSB - VISIBILITY




USA.gov is the U.S. government's official web portal to all federal, state and local government web resources and services.